When you browse on this site, cookies collect data to enhance your experience and personalize the content and advertising you see.
Visit our Privacy Policy to learn more. By continuing to use the site, you agree to this use of cookies and data.
  • In Hungary
  • List of Countries
  • For 7 days
  • Water Temperature
  • Satellite Maps
  • Weather Map
  • News
  • Weather Widgets
  • user-avatar
    Login

    Hourly Weather Karamadai

    Today, 23 March, Saturday

    Time Temperature Precipitation Wind Pressure Humidity
    00:00 +29°C° 0 mm 1 mps 730 mmHg 50%
    01:00 +28°C° 0 mm 1 mps 730 mmHg 53%
    02:00 +28°C° 0 mm 1 mps 729 mmHg 55%
    03:00 +27°C° 0 mm 1 mps 730 mmHg 58%
    04:00 +27°C° 0 mm 1 mps 730 mmHg 61%
    05:00 +26°C° 0 mm 1 mps 730 mmHg 64%
    06:00 +28°C° 0 mm 1 mps 730 mmHg 61%
    07:00 +29°C° 0 mm 1 mps 731 mmHg 58%
    08:00 +30°C° 0 mm 1 mps 731 mmHg 55%
    09:00 +32°C° 0 mm 1 mps 731 mmHg 48%
    10:00 +35°C° 0 mm 2 mps 731 mmHg 42%
    11:00 +37°C° 0 mm 1 mps 731 mmHg 34%
    12:00 +38°C° 0 mm 2 mps 730 mmHg 32%
    13:00 +39°C° 0 mm 2 mps 729 mmHg 30%
    14:00 +39°C° 0 mm 2 mps 729 mmHg 28%
    15:00 +39°C° 0 mm 2 mps 728 mmHg 28%
    16:00 +38°C° 0 mm 2 mps 728 mmHg 29%
    17:00 +38°C° 0 mm 2 mps 728 mmHg 30%
    18:00 +35°C° 0 mm 1 mps 728 mmHg 34%
    19:00 +34°C° 0 mm 1 mps 729 mmHg 38%
    20:00 +32°C° 0 mm 1 mps 729 mmHg 42%
    21:00 +31°C° 0 mm 1 mps 729 mmHg 46%
    22:00 +30°C° 0 mm 1 mps 729 mmHg 50%
    23:00 +29°C° 0 mm 2 mps 730 mmHg 54%

    Tomorrow, 24 March, Sunday

    Time Temperature Precipitation Wind Pressure Humidity
    00:00 +29°C° 0 mm 2 mps 729 mmHg 57%
    01:00 +28°C° 0 mm 1 mps 729 mmHg 60%
    02:00 +28°C° 0 mm 1 mps 729 mmHg 62%
    03:00 +27°C° 0 mm 1 mps 729 mmHg 63%
    04:00 +27°C° 0 mm 1 mps 729 mmHg 63%
    05:00 +27°C° 0 mm 1 mps 729 mmHg 63%
    06:00 +28°C° 0 mm 1 mps 729 mmHg 58%
    07:00 +30°C° 0 mm 1 mps 730 mmHg 52%
    08:00 +29°C° 0 mm 0 mps 731 mmHg 46%
    09:00 +33°C° 0 mm 1 mps 731 mmHg 40%
    10:00 +35°C° 0 mm 1 mps 730 mmHg 33%
    11:00 +38°C° 0 mm 2 mps 730 mmHg 26%
    12:00 +39°C° 0 mm 2 mps 729 mmHg 25%
    13:00 +39°C° 0 mm 2 mps 729 mmHg 24%
    14:00 +40°C° 0 mm 2 mps 728 mmHg 23%
    15:00 +39°C° 0 mm 2 mps 727 mmHg 24%
    16:00 +39°C° 0 mm 2 mps 727 mmHg 25%
    17:00 +38°C° 0 mm 2 mps 727 mmHg 26%
    18:00 +37°C° 0 mm 2 mps 727 mmHg 28%
    19:00 +34°C° 0 mm 1 mps 728 mmHg 31%
    20:00 +32°C° 0 mm 1 mps 728 mmHg 34%
    21:00 +32°C° 0 mm 1 mps 729 mmHg 36%
    22:00 +31°C° 0 mm 1 mps 729 mmHg 39%
    23:00 +30°C° 0 mm 1 mps 729 mmHg 41%

    Day after tomorrow, 25 March, Monday

    Time Temperature Precipitation Wind Pressure Humidity
    00:00 +29°C° 0 mm 1 mps 729 mmHg 42%
    01:00 +29°C° 0 mm 1 mps 729 mmHg 44%
    02:00 +28°C° 0 mm 1 mps 728 mmHg 45%
    03:00 +28°C° 0 mm 1 mps 728 mmHg 46%
    04:00 +27°C° 0 mm 1 mps 728 mmHg 48%
    05:00 +27°C° 0 mm 1 mps 728 mmHg 49%
    06:00 +28°C° 0 mm 1 mps 729 mmHg 46%
    07:00 +30°C° 0 mm 2 mps 729 mmHg 42%
    08:00 +31°C° 0 mm 2 mps 730 mmHg 39%
    09:00 +34°C° 0 mm 2 mps 730 mmHg 34%
    10:00 +35°C° 0 mm 2 mps 730 mmHg 30%
    11:00 +37°C° 0 mm 3 mps 730 mmHg 25%
    12:00 +38°C° 0 mm 3 mps 729 mmHg 24%
    13:00 +39°C° 0 mm 3 mps 728 mmHg 22%
    14:00 +41°C° 0 mm 4 mps 727 mmHg 21%
    15:00 +40°C° 0 mm 4 mps 727 mmHg 21%
    16:00 +39°C° 0 mm 3 mps 727 mmHg 21%
    17:00 +38°C° 0 mm 3 mps 726 mmHg 21%
    18:00 +37°C° 0 mm 2 mps 727 mmHg 24%
    19:00 +34°C° 0 mm 1 mps 728 mmHg 26%
    20:00 +32°C° 0 mm 1 mps 729 mmHg 29%
    21:00 +31°C° 0 mm 1 mps 729 mmHg 31%
    22:00 +31°C° 0 mm 1 mps 729 mmHg 33%
    23:00 +30°C° 0 mm 2 mps 730 mmHg 35%

    26 March, Tuesday

    Time Temperature Precipitation Wind Pressure Humidity
    00:00 +29°C° 0 mm 1 mps 729 mmHg 38%
    01:00 +28°C° 0 mm 1 mps 729 mmHg 41%
    02:00 +27°C° 0 mm 1 mps 728 mmHg 44%
    03:00 +27°C° 0 mm 1 mps 728 mmHg 47%
    04:00 +26°C° 0 mm 1 mps 728 mmHg 50%
    05:00 +26°C° 0 mm 1 mps 728 mmHg 53%
    06:00 +27°C° 0 mm 1 mps 729 mmHg 51%
    07:00 +28°C° 0 mm 1 mps 730 mmHg 48%
    08:00 +30°C° 0 mm 2 mps 730 mmHg 45%
    09:00 +31°C° 0 mm 2 mps 730 mmHg 39%
    10:00 +34°C° 0 mm 3 mps 730 mmHg 33%
    11:00 +36°C° 0 mm 3 mps 730 mmHg 26%
    12:00 +37°C° 0 mm 3 mps 729 mmHg 24%
    13:00 +38°C° 0 mm 4 mps 728 mmHg 22%
    14:00 +40°C° 0 mm 4 mps 727 mmHg 20%
    15:00 +40°C° 0 mm 4 mps 727 mmHg 20%
    16:00 +39°C° 0 mm 3 mps 728 mmHg 21%
    17:00 +38°C° 0 mm 3 mps 728 mmHg 21%
    18:00 +36°C° 0 mm 2 mps 728 mmHg 23%
    19:00 +35°C° 0 mm 2 mps 729 mmHg 26%
    20:00 +32°C° 0 mm 1 mps 730 mmHg 28%
    21:00 +31°C° 0 mm 1 mps 730 mmHg 30%
    22:00 +30°C° 0 mm 1 mps 731 mmHg 32%
    23:00 +29°C° 0 mm 1 mps 731 mmHg 33%

    27 March, Wednesday

    Time Temperature Precipitation Wind Pressure Humidity
    00:00 +28°C° 0 mm 1 mps 730 mmHg 37%
    01:00 +27°C° 0 mm 1 mps 730 mmHg 40%
    02:00 +26°C° 0 mm 1 mps 729 mmHg 44%
    03:00 +26°C° 0 mm 1 mps 729 mmHg 49%
    04:00 +25°C° 0 mm 1 mps 729 mmHg 54%
    05:00 +24°C° 0 mm 1 mps 729 mmHg 59%
    06:00 +26°C° 0 mm 1 mps 730 mmHg 57%
    07:00 +27°C° 0 mm 1 mps 731 mmHg 54%
    08:00 +29°C° 0 mm 2 mps 732 mmHg 52%
    09:00 +31°C° 0 mm 2 mps 731 mmHg 43%
    10:00 +34°C° 0 mm 2 mps 731 mmHg 34%
    11:00 +36°C° 0 mm 3 mps 731 mmHg 25%
    12:00 +37°C° 0 mm 3 mps 730 mmHg 23%
    13:00 +38°C° 0 mm 3 mps 729 mmHg 20%
    14:00 +40°C° 0 mm 4 mps 728 mmHg 17%
    15:00 +39°C° 0 mm 3 mps 728 mmHg 18%
    16:00 +38°C° 0 mm 3 mps 728 mmHg 19%
    17:00 +38°C° 0 mm 3 mps 728 mmHg 20%
    18:00 +36°C° 0 mm 2 mps 729 mmHg 22%
    19:00 +34°C° 0 mm 2 mps 729 mmHg 24%
    20:00 +31°C° 0 mm 1 mps 730 mmHg 25%
    21:00 +30°C° 0 mm 1 mps 730 mmHg 26%
    22:00 +30°C° 0 mm 1 mps 731 mmHg 27%
    23:00 +29°C° 0 mm 1 mps 731 mmHg 28%

    28 March, Thursday

    Time Temperature Precipitation Wind Pressure Humidity
    00:00 +28°C° 0 mm 1 mps 731 mmHg 31%
    01:00 +28°C° 0 mm 1 mps 730 mmHg 34%
    02:00 +27°C° 0 mm 1 mps 730 mmHg 37%
    03:00 +27°C° 0 mm 1 mps 730 mmHg 39%
    04:00 +26°C° 0 mm 1 mps 730 mmHg 41%
    05:00 +26°C° 0 mm 1 mps 730 mmHg 43%
    06:00 +27°C° 0 mm 1 mps 731 mmHg 43%
    07:00 +29°C° 0 mm 1 mps 731 mmHg 44%
    08:00 +30°C° 0 mm 1 mps 732 mmHg 44%
    09:00 +32°C° 0 mm 2 mps 731 mmHg 38%
    10:00 +36°C° 0 mm 2 mps 731 mmHg 31%
    11:00 +38°C° 0 mm 2 mps 731 mmHg 25%
    12:00 +39°C° 0 mm 3 mps 730 mmHg 23%
    13:00 +40°C° 0 mm 3 mps 729 mmHg 21%
    14:00 +42°C° 0 mm 4 mps 728 mmHg 19%
    15:00 +41°C° 0 mm 4 mps 728 mmHg 19%
    16:00 +40°C° 0 mm 4 mps 728 mmHg 19%
    17:00 +39°C° 0 mm 3 mps 728 mmHg 20%
    18:00 +37°C° 0 mm 3 mps 728 mmHg 21%
    19:00 +35°C° 0 mm 2 mps 729 mmHg 23%
    20:00 +32°C° 0 mm 1 mps 730 mmHg 25%
    21:00 +31°C° 0 mm 1 mps 730 mmHg 30%
    22:00 +30°C° 0 mm 1 mps 730 mmHg 35%
    23:00 +29°C° 0 mm 2 mps 730 mmHg 40%
    Show more